Flag for U.S.A. Weather past 2 weeks in Springfield, Massachusetts, U.S.A.

Now
50 °F

Sunny.


Feels Like: 47 °F
Forecast: 45 / 82 °F
Wind: 7 mph from Southwest

Location: Barnes Municipal Airport

Current Time: May 24, 2015 at 9:47:33 AM

Latest Report: May 24, 2015 at 7:53 AM


Visibility: 10 mi

Pressure: 30.31 "Hg

Humidity: 71%

Dew point: 41 °F

Location of SpringfieldLocation

Historic Weather in Springfield — Graph

°F

Springfield temperature yesterday

Maximum temperature yesterday: 66 °F (at 3:53 PM)
Minimum temperature yesterday: 40 °F (at 5:53 AM)
Average temperature yesterday: 53 °F

Past Weeks' High & Low Weather Summary

 TemperatureHumidityPressure
High92 °F (May 10, 3:53 PM)94% (May 11, 4:53 AM)30.39 "Hg (May 11, 4:53 AM)
Low35 °F (May 14, 6:01 AM)16% (May 14, 1:53 PM)29.66 "Hg (May 12, 3:53 PM)
Average63 °F57%30.07 "Hg
* Reported May 9 8:00 AM — May 24 7:53 AM, Springfield, Weather by CustomWeather, © 2015

Note: Actual official high and low records may vary slightly from our data, if they occured in-between our weather recording intervals... More about our weather records

Advertising

Springfield weather history for previous 24 hours

 ConditionsComfort  
Time TempWeatherWind HumidityBarometerVisibility
7:53 AM
Sun, May 24
50 °FSunny.7 mph71%30.31 "Hg10 mi
6:53 AM46 °FSunny.No wind77%30.31 "Hg10 mi
5:53 AM40 °FClear.3 mph86%30.30 "Hg10 mi
3:53 AM41 °FClear.6 mph82%30.29 "Hg10 mi
1:53 AM42 °FClear.No wind79%30.31 "Hg10 mi
12:53 AM42 °FClear.No wind79%30.30 "Hg10 mi
11:53 PM
Sat, May 23
44 °FClear.6 mph71%30.31 "Hg10 mi
10:53 PM46 °FClear.No wind68%30.30 "Hg10 mi
9:53 PM47 °FClear.No wind66%30.31 "Hg10 mi
8:53 PM51 °FSunny.No wind50%30.30 "Hg10 mi
7:53 PM62 °FSunny.5 mph26%30.29 "Hg10 mi
6:53 PM65 °FSunny.7 mph21%30.29 "Hg10 mi
5:53 PM66 °FSunny.9 mph18%30.30 "Hg10 mi
4:53 PM66 °FSunny.12 mph17%30.31 "Hg10 mi
3:53 PM66 °FSunny.16 mph18%30.32 "Hg10 mi
2:53 PM64 °FSunny.16 mph18%30.33 "Hg10 mi
1:53 PM61 °FSunny.12 mph21%30.34 "Hg10 mi
12:53 PM59 °FSunny.8 mph22%30.35 "Hg10 mi
11:53 AM57 °FSunny.12 mph23%30.37 "Hg10 mi
10:53 AM55 °FSunny.15 mph25%30.36 "Hg10 mi
9:53 AM52 °FSunny.9 mph28%30.36 "Hg10 mi
Weather by CustomWeather, © 2015

See weather overviewHow to use our weather pages